Tracking 25378 objects as of 22-Jan-2022
HD Live streaming from Space Station
objects crossing your sky now

STARLINK-2620

Track STARLINK-2620 now!
10-day predictions
STARLINK-2620 is classified as:


NORAD ID: 48453
Int'l Code: 2021-040AB
Perigee: 553.4 km
Apogee: 555.3 km
Inclination: 53.1 °
Period: 95.6 minutes
Semi major axis: 6925 km
RCS: Unknown
Launch date: May 9, 2021
Source: United States (US)
Launch site: AIR FORCE EASTERN TEST RANGE (AFETR)
aabbcc
Your satellite tracking list
Your tracking list is empty




NASA's NSSDC Master Catalog

Two Line Element Set (TLE):
1 48453U 21040AB  22021.50935493 -.00000126  00000-0  10448-4 0  9997
2 48453  53.0556 112.0914 0001407  95.0469 265.0680 15.06397647 39314
Source of the keplerian elements: AFSPC